EW0724 Weather Reports


Display with metric or nautical units.
time (UTC)temp
F
wind
direction
speed
MPH
gust
MPH
rain 1hr
in
rain 24hr
in
rain mn
in
humidity
%
barometer
mb
20260509054512 54 155 0.0 0.0 0.00 0.08 0.00 100 1006.1
20260509053011 54 155 0.0 2.0 0.00 0.08 0.00 100 1006.2
20260509051504 54 157 0.0 0.0 0.00 0.08 0.00 100 1006.4
20260509050100 55 157 0.0 1.0 0.00 0.08 0.00 100 1006.2
20260509044555 55 157 0.0 1.0 0.00 0.08 0.00 100 1006.4
20260509043104 55 152 0.0 4.0 0.00 0.08 0.08 100 1006.4
20260509041548 55 151 0.0 3.0 0.00 0.08 0.08 100 1006.5
20260509040031 55 165 0.0 1.0 0.00 0.08 0.08 100 1006.5
20260509034526 55 163 0.0 0.0 0.00 0.08 0.08 100 1006.5
20260509033021 56 163 0.0 0.0 0.00 0.08 0.08 100 1006.6
20260509031517 56 163 0.0 0.0 0.00 0.08 0.08 100 1006.7
20260509030015 56 163 0.0 0.0 0.00 0.08 0.08 100 1006.7
20260509024509 57 163 0.0 0.0 0.00 0.08 0.08 100 1006.8
20260509023004 57 163 0.0 3.0 0.00 0.08 0.08 100 1006.8
20260509021548 57 166 0.0 1.0 0.00 0.08 0.08 100 1006.5
20260509020051 57 167 0.0 1.0 0.00 0.08 0.08 100 1006.6
20260509014539 58 171 0.0 3.0 0.00 0.08 0.08 3 1006.6
20260509013047 58 157 0.0 4.0 0.00 0.08 0.08 6 1006.7
20260509011532 58 191 2.0 5.0 0.00 0.08 0.08 11 1006.6
20260509010039 58 187 0.0 5.0 0.00 0.08 0.08 16 1006.6
20260509004526 58 223 2.0 6.0 0.00 0.08 0.08 21 1006.6
20260509003018 59 175 2.0 5.0 0.00 0.08 0.08 26 1006.6
20260509001501 59 155 2.0 8.0 0.00 0.08 0.08 26 1006.6
20260509000059 59 165 3.0 7.0 0.00 0.08 0.08 24 1006.7
20260508234552 60 219 3.0 8.0 0.00 0.08 0.08 22 1006.7
20260508233048 60 218 2.0 9.0 0.00 0.08 0.08 20 1006.7
20260508231545 60 145 2.0 8.0 0.00 0.08 0.08 19 1006.9
20260508230049 60 217 3.0 9.0 0.00 0.08 0.08 20 1006.8
20260508224541 60 197 3.0 9.0 0.00 0.08 0.08 24 1006.8
20260508223036 60 172 4.0 9.0 0.00 0.08 0.08 30 1006.9
20260508221523 60 98 3.0 11.0 0.00 0.08 0.08 32 1007.0
20260508220005 60 208 3.0 11.0 0.00 0.08 0.08 33 1006.9
20260508214546 60 156 4.0 11.0 0.00 0.08 0.08 36 1006.8
20260508213042 60 182 4.0 8.0 0.00 0.08 0.08 23 1006.9
20260508211537 60 193 5.0 12.0 0.00 0.08 0.08 20 1006.9
20260508210033 60 141 1.0 8.0 0.00 0.08 0.08 4 1007.1
20260508204529 60 186 3.0 11.0 0.01 0.08 0.08 9 1007.4
20260508203024 60 215 3.0 7.0 0.02 0.08 0.08 8 1007.4
20260508201522 59 161 3.0 6.0 0.03 0.08 0.08 4 1007.6
20260508200018 58 221 2.0 5.0 0.04 0.08 0.08 2 1007.7
20260508194513 58 158 2.0 8.0 0.03 0.07 0.07 12 1008.0
20260508193009 58 224 5.0 10.0 0.02 0.06 0.06 16 1008.2
20260508191508 58 217 3.0 6.0 0.01 0.05 0.05 22 1008.4
20260508190001 59 202 4.0 10.0 0.00 0.04 0.04 37 1008.5
20260508184558 60 201 5.0 13.0 0.00 0.04 0.04 46 1008.5
20260508183054 61 194 7.0 14.0 0.00 0.04 0.04 55 1008.7
20260508181553 62 212 4.0 8.0 0.00 0.04 0.04 60 1008.4
20260508180050 63 198 5.0 9.0 0.00 0.04 0.04 62 1008.6
20260508174544 63 257 3.0 11.0 0.00 0.04 0.04 62 1008.9
20260508173039 63 232 5.0 13.0 0.00 0.04 0.04 62 1009.1
20260508171535 62 196 4.0 14.0 0.00 0.04 0.04 61 1009.2
20260508170031 62 221 3.0 13.0 0.00 0.04 0.04 62 1009.3
20260508164520 62 150 7.0 15.0 0.00 0.04 0.04 62 1009.5
20260508163010 61 182 2.0 10.0 0.00 0.04 0.04 63 1009.8
20260508161510 59 208 2.0 11.0 0.00 0.04 0.04 62 1010.2
20260508160001 59 148 3.0 7.0 0.00 0.04 0.04 60 1010.2
20260508154600 58 200 3.0 8.0 0.00 0.04 0.04 60 1010.5
20260508153053 57 233 1.0 6.0 0.00 0.04 0.04 58 1010.5
20260508151548 57 107 3.0 8.0 0.00 0.04 0.04 50 1010.5
20260508150045 56 94 1.0 5.0 0.00 0.04 0.04 40 1010.6
20260508144540 54 147 1.0 7.0 0.00 0.04 0.04 34 1010.7
20260508143020 54 146 2.0 4.0 0.01 0.04 0.04 21 1010.8
20260508141516 53 197 1.0 5.0 0.02 0.04 0.04 15 1011.1
20260508134558 52 182 0.0 0.0 0.04 0.04 0.04 10 1011.5
20260508133051 52 152 0.0 2.0 0.03 0.03 0.03 14 1011.3
20260508131557 52 172 0.0 2.0 0.02 0.02 0.02 17 1011.5
20260508130108 52 246 1.0 5.0 0.00 0.00 0.00 20 1011.6
20260508124551 52 179 0.0 1.0 0.00 0.00 0.00 13 1011.0
20260508123048 52 188 0.0 0.0 0.00 0.00 0.00 14 1011.1
20260508121556 0 0.0 0.0 0.00 0.00 0.00 1011.2
20260508120029 0 0.0 0.0 0.00 0.00 0.00 1011.0
20260508114525 0 0.0 0.0 0.00 0.00 0.00 1011.1
20260508113021 0 0.0 0.0 0.00 0.00 0.00 1011.1
20260508111520 0 0.0 0.0 0.00 0.00 0.00 1010.8
20260508110012 0 0.0 0.0 0.00 0.00 0.00 1010.7
20260508104510 0 0.0 0.0 0.00 0.00 0.00 1010.8
20260508103004 0 0.0 0.0 0.00 0.00 0.00 1010.7
20260508101604 0 0.0 0.0 0.00 0.00 0.00 1010.7
20260508100041 53 186 2.0 9.0 0.00 0.00 0.00 55 1010.7
20260508094546 53 196 2.0 6.0 0.00 0.00 0.00 53 1010.8
20260508093041 53 223 2.0 9.0 0.00 0.00 0.00 54 1010.8
20260508091540 53 223 3.0 11.0 0.00 0.00 0.00 57 1010.8
20260508090047 53 173 6.0 15.0 0.00 0.00 0.00 59 1010.9
20260508084539 53 227 4.0 10.0 0.00 0.00 0.00 60 1010.9
20260508083051 53 194 3.0 10.0 0.00 0.00 0.00 58 1011.1
20260508081549 52 185 3.0 7.0 0.00 0.00 0.00 56 1010.9
20260508080023 52 179 2.0 7.0 0.00 0.00 0.00 53 1010.8
20260508074521 52 187 1.0 6.0 0.00 0.00 0.00 52 1010.7
20260508073019 51 171 2.0 9.0 0.00 0.00 0.00 51 1010.9
20260508071514 51 151 3.0 7.0 0.00 0.00 0.00 47 1011.1
20260508070019 50 198 2.0 6.0 0.00 0.00 0.00 37 1011.2
20260508064509 49 157 0.0 2.0 0.00 0.00 0.00 32 1011.2
20260508063008 48 186 0.0 3.0 0.00 0.00 0.00 27 1011.3
20260508061508 48 139 0.0 0.0 0.00 0.00 0.00 33 1011.2
20260508060052 48 139 0.0 0.0 0.00 0.00 0.00 38 1011.3